Miscellaneous Local Product
Issued by NWS Hastings, NE

Home | Current Version | Previous Version | Graphics & Text | Print | Product List | Glossary On
Versions: 1 2 3 4 5 6 7 8 9 10 11 12 13 14 15 16 17 18 19 20 21 22 23 24 25 26 27 28 29 30 31 32 33 34 35 36 37 38 39 40 41 42 43 44 45 46 47 48 49 50
000
AXUS43 KGID 271002
MISGRI

GID CWA HOURLY WEATHER ROUNDUP
NATIONAL WEATHER SERVICE HASTINGS NE
500 AM CDT SUN MAY 27 2018

NOTE: "FAIR" INDICATES FEW OR NO CLOUDS BELOW 12,000 FEET WITH NO
SIGNIFICANT WEATHER AND/OR OBSTRUCTIONS TO VISIBILITY.

...SOUTH CENTRAL NEBRASKA...

CITY           SKY/WX    TMP DP  RH WIND       PRES   REMARKS
GRAND ISLAND   MOCLDY    74  58  57 SW13      29.84R
KEARNEY        PTCLDY    70  58  65 SW9       29.85R
HASTINGS       CLOUDY    73  59  61 S8        29.85R
ORD            MOCLDY    66  57  72 SW10      29.80S
YORK           PTCLDY    68  61  77 SW7       29.83R
AURORA         CLOUDY    70  57  64 SW9       29.84R
LEXINGTON      CLOUDY    69  57  65 S8        29.85S
HOLDREGE       MOCLDY    69  58  67 S9        29.86R
HEBRON         CLOUDY    72  61  69 SW6       29.84R

...NEBRASKA PANHANDLE...

CITY           SKY/WX    TMP DP  RH WIND       PRES   REMARKS
CHADRON        CLOUDY    73  48  41 S16G26    29.69S
ALLIANCE       CLOUDY    63  50  62 SE13      29.77S
SCOTTSBLUFF    CLOUDY    68  52  56 E8        29.77R
SIDNEY         CLOUDY    68  53  58 S12       29.82R

...WESTERN AND NORTH CENTRAL NEBRASKA...

CITY           SKY/WX    TMP DP  RH WIND       PRES   REMARKS
VALENTINE      MOCLDY    74  53  48 S18G26    29.77R
AINSWORTH      MOCLDY    69  56  65 S12       29.80S
ONEILL         MOCLDY    70  59  69 S6        29.80S
BROKEN BOW     CLOUDY    71  55  56 S8        29.84R
IMPERIAL       CLOUDY    70  55  59 S15       29.82S
NORTH PLATTE   CLOUDY    70  55  59 S7        29.83S
MCCOOK         CLOUDY    69  58  67 VRB6      29.84R

...EASTERN NEBRASKA...

CITY           SKY/WX    TMP DP  RH WIND       PRES   REMARKS
NORFOLK        PTCLDY    64  59  83 CALM      29.79R
SO SIOUX CITY  CLEAR     68  56  65 SE5       29.78R
TEKAMAH        CLEAR     68  60  75 S5        29.79R
COLUMBUS       PTCLDY    67  60  78 SE3       29.81R
ALBION         PTCLDY    71  59  66 CALM      29.82R
OMAHA EPPLEY   CLEAR     74  60  61 SE3       29.79S
OFFUTT AFB     CLEAR     64  62  93 CALM      29.79R
MILLARD        CLEAR     70  64  81 CALM      29.81R
LINCOLN        CLEAR     68  61  78 S5        29.81R
NEBRASKA CITY  CLEAR     74  62  66 SW12      29.81S
BEATRICE       CLEAR     73  64  73 S5        29.83R
FALLS CITY     CLEAR     74  63  68 CALM      29.81R

...NORTHERN KANSAS...

CITY           SKY/WX    TMP DP  RH WIND       PRES   REMARKS
GOODLAND       CLOUDY    65  56  72 S15G21    29.86S
HILL CITY      CLOUDY    68  63  84 S7        29.85R
NORTON         SUNNY     66  57  72 S5        29.85R
PHILLIPSBURG   CLEAR     72  61  68 S6        29.85S
SMITH CENTER     N/A     66  59  77 S7        29.86R
HAYS           CLOUDY    66  63  90 S6        29.86R
RUSSELL        MOCLDY    67  65  93 SW8       29.84R
CONCORDIA      PTCLDY    72  63  73 SW9       29.83R
SALINA         PTCLDY    69  65  86 S6        29.84R
TOPEKA         CLEAR     71  68  90 CALM      29.84R



USA.gov is the U.S. government's official web portal to all federal, state and local government web resources and services.